This demonstration page uses our WeatherBlox Daily Observations layout. Learn more.

Left ArrowRight Arrow

Hourly Observations for October 8, 2021

Temp ( °F °C ) Dew Point ( °F °C ) Humidity (%) Winds ( mph kmh ) Pressure ( in mb ) Visibility ( mi km ) Precip ( " mm )
12:53 am 00:53 Clear 54 12.2 32 undefined 43 43 N N/A 29.92 1013 10 16 N/A
1:53 am 01:53 Clear 52 11.1 32 undefined 47 47 N 3 6 29.92 1013 10 16 N/A
2:53 am 02:53 Clear 49 9.4 32 undefined 52 52 N N/A 29.93 1014 10 16 N/A
3:53 am 03:53 Clear 48 8.9 33 0.6 56 56 N N/A 29.94 1014 10 16 N/A
4:53 am 04:53 Clear 47 8.3 32 undefined 56 56 N N/A 29.95 1014 10 16 N/A
5:53 am 05:53 Clear 46 7.8 32 undefined 58 58 N N/A 29.96 1015 10 16 N/A
6:53 am 06:53 Clear 44 6.7 32 undefined 63 63 NNE 3 6 29.98 1015 10 16 N/A
7:53 am 07:53 Sunny 45 7.2 32 undefined 61 61 N N/A 30.01 1016 10 16 N/A
8:53 am 08:53 Sunny 53 11.7 35 1.7 51 51 N N/A 30.02 1017 10 16 N/A
9:53 am 09:53 Sunny 56 13.3 43 6.1 62 62 VRB 5 7 30.03 1017 10 16 N/A
10:53 am 10:53 Sunny 59 15 44 6.7 58 58 VRB 3 6 30.02 1017 10 16 N/A
11:53 am 11:53 Sunny 63 17.2 43 6.1 48 48 ESE 6 9 30.01 1016 10 16 N/A
12:53 pm 12:53 Mostly Sunny 64 17.8 43 6.1 46 46 VRB 6 9 30.01 1016 10 16 N/A
1:53 pm 13:53 Sunny 67 19.4 41 5 39 39 SSE 10 17 30.00 1016 10 16 N/A
2:53 pm 14:53 Mostly Sunny 67 19.4 42 5.6 41 41 S 12 19 29.99 1016 10 16 N/A
3:53 pm 15:53 Sunny 68 20 41 5 38 38 SSE 12 19 29.98 1015 10 16 N/A
4:53 pm 16:53 Partly Cloudy 67 19.4 41 5 39 39 S 12 19 30.00 1016 10 16 N/A
5:53 pm 17:53 Mostly Cloudy 66 18.9 41 5 40 40 S 14 22 30.01 1016 10 16 N/A
6:53 pm 18:53 Cloudy 65 18.3 43 6.1 45 45 SSE 13 20 30.02 1017 8 13 N/A
7:53 pm 19:53 Cloudy 64 17.8 44 6.7 48 48 S 10 17 30.04 1017 10 16 N/A
8:53 pm 20:53 Cloudy 63 17.2 44 6.7 50 50 SSE 10 17 30.05 1018 10 16 N/A
9:53 pm 21:53 Mostly Cloudy 62 16.7 43 6.1 50 50 S 6 9 30.07 1018 10 16 N/A
10:53 pm 22:53 Cloudy 62 16.7 42 5.6 48 48 SSW 3 6 30.09 1019 10 16 N/A
11:53 pm 23:53 Cloudy 61 16.1 46 7.8 58 58 N N/A 30.11 1020 10 16 0.00 0.00

Powered by AerisWeather